Regional & State Weather Roundups


588 
ASUS44 KLCH 192010
RWRLCH
REGIONAL WEATHER ROUNDUP
NATIONAL WEATHER SERVICE LAKE CHARLES LA
300 PM CDT FRI APR 19 2019
Note: "fair" indicates few or no clouds below 12,000 feet with no
significant weather and/or obstructions to visibility.
ACROSS SOUTHEAST TEXAS
  
CITY           SKY/WX    TMP DP  RH WIND       PRES   REMARKS
BEAUMONT       FAIR      74  42  31 NW15G25   29.94F                  
BEAUMONT CITY  NOT AVBL                                               
ORANGE         FAIR      70  44  38 NW13G20   29.95F                  
JASPER         LGT RAIN  64  49  58 N9G28     29.99R                  
$$
ACROSS CENTRAL LOUISIANA
  
CITY           SKY/WX    TMP DP  RH WIND       PRES   REMARKS
LEESVILLE      CLOUDY    59  47  66 W18       29.92R                  
FULLERTON      FAIR      63  47  55 NW9       29.89S                  
ALEXANDRIA INT PTSUNNY   64  47  53 N15G25    29.87S                  
ESLER FIELD    FAIR      58  46  64 W9G18     29.90R                  
DERIDDER       LGT RAIN  55  52  88 NW10G21   29.99R                  
OAKDALE        LGT RAIN  56  48  73 N7G32     29.90S                  
OPELOUSAS      FAIR      58  49  72 NW6       29.90F                  
$$
ACROSS SOUTHWEST AND SOUTH CENTRAL LOUISIANA
  
CITY           SKY/WX    TMP DP  RH WIND       PRES   REMARKS
DEQUINCY       MOCLDY    68  44  40 W18G25    29.93S                  
SULPHUR        FAIR      70  47  43 NW17G25   29.93F                  
LAKE CHARLES   FAIR      72  44  36 NW25G35   29.91F                  
CHENNAULT INT  PTSUNNY   68  45  42 NW15G22   29.91F                  
CAMERON PHI    NOT AVBL                                               
GRAND CHENIER  NOT AVBL                                               
JENNINGS       FAIR      68  45  43 NW17G26   29.90F                  
LAFAYETTE      FAIR      67  49  52 NW13G20   29.89F                  
NEW IBERIA     PTSUNNY   61  47  59 NW13G32   29.90S                  
ABBEVILLE      FAIR      65  48  53 NW14      29.90S                  
PATTERSON      FAIR      69  44  40 NW17G24   29.87F                  
SALT POINT       N/A    N/A N/A N/A NW14G25   29.87F                  
$$
SELECTED SITES ACROSS THE REGION
  
CITY           SKY/WX    TMP DP  RH WIND       PRES   REMARKS
HOUSTON BUSH   MOSUNNY   73  41  31 NW24G35   30.01F                  
HOUSTON HOBBY  FAIR      74  39  28 NW29G39   29.99F                  
GALVESTON      FAIR      75  41  29 NW21G29   29.98F                  
COLLEGE STAT   SUNNY     71  38  29 N26G37    30.06F                  
CONROE         SUNNY     71  38  29 NW20G35   30.02F                  
HUNTSVILLE     MOSUNNY   69  40  34 NW18G28   30.04S                  
LUFKIN         PTSUNNY   66  41  40 NW16G29   29.99S                  
SHREVEPORT     MOSUNNY   64  39  39 NW18G29   29.93S                  
MONROE         PTSUNNY   63  42  46 N22G30    29.86S                  
NATCHEZ MS     RAIN      55  44  66 SW17G33   29.85S                  
BATON ROUGE    FAIR      67  45  45 W21       29.85F                  
N.O. INTL ARPT FAIR      70  43  37 W17G30    29.83F                  
SLIDELL        FAIR      67  41  38 NW12G22   29.80F                  
$$
MARINE REPORTS
  
STATION/POSITION TIME  SKY/WX   TEMP    WIND        PRES    VSBY
                                AIR SEA DIR/SP/G
                 (UTC)          (F)     (DEG/KT/KT) (MB)    (MI)
BUOY 30 S HIGH I 1950            69 70  310/ 21/ 27 1015.8F
WVE H/P(F/S)=  4/ 4
SEA RIM ST PARK  2000            70     320/ 21/ 27 1014.0F
PORT ARTHUR      1942            70 69  310/ 13/ 24 1014.0F
SABINE PASS N    1942            70 71  320/ 18/ 26 1015.7F
TEXAS POINT      NOT AVBL
CALCASIEU PASS   1942            69 69  330/ 20/ 33 1012.1F
LK CHARLES BEACH 1942            67 69              1012.4F
MARSH ISLAND     1900            65                   N/A
FRESH WATER LOCK NOT AVBL
AMERADA PASS     1942            66 66  260/  8/ 14 1011.8F
$$